Dewpoint
27 25 24 23 23 21 22 22 20 20 22 19 20 20 20 37 51 53 55 60 61 57 56 57 59 61 62 63 64 66 68 66 65 64 65 65 63 57 54 54 53 54 53 54 54 56 58 59 60 61 61 60 62 64 64 65 66 68 69 70 69 70 71 71 70 68 68 68 69 69 69 68 69 69 70 71 72 73 74 74 73 73 73 74 74 74
26 25 24 24 24 22 19 19 19 19 19 18 17 16 15 17 38 51 54 59 58 57 56 59 59 60 62 63 64 66 66 65 65 64 64 65 65 63 61 63 54 53 54 54 54 55 57 58 59 60 60 62 63 64 64 64 66 68 68 69 69 71 70 70 69 69 68 71 70 69 69 70 70 71 71 72 73 74 75 75 74 75 74 74 75 77
26 23 23 24 23 22 20 17 15 15 15 16 15 16 15 29 50 53 57 58 58 56 55 59 59 60 61 62 63 65 65 65 65 64 64 64 64 65 65 64 63 57 54 53 53 54 56 57 58 59 59 61 63 63 63 64 66 68 68 69 70 70 70 71 70 69 69 71 71 69 70 70 70 70 71 72 74 75 75 75 76 76 75 76 76 76
25 24 24 23 22 20 19 18 15 12 11 12 12 12 12 47 49 52 57 57 55 55 55 57 57 59 62 63 64 65 65 65 67 67 66 67 64 65 64 64 64 62 53 53 52 53 55 56 57 58 59 62 63 63 63 64 66 67 69 69 70 70 70 71 72 71 70 72 71 71 71 72 71 71 74 74 74 74 75 75 76 76 76 76 76 76
23 23 25 24 22 19 17 15 13 10 8 8 9 9 21 48 49 52 53 54 54 56 57 57 57 57 60 60 61 64 65 66 66 66 66 67 68 68 69 68 67 64 59 52 52 53 54 56 56 58 60 62 62 62 62 65 66 67 68 70 70 70 70 71 74 71 71 73 71 72 73 74 72 71 72 72 73 73 75 75 75 75 76 76 76 76
22 24 25 23 22 20 17 14 12 9 7 7 9 9 13 38 49 49 52 51 52 52 55 54 48 51 58 60 60 61 64 64 65 65 65 65 67 67 66 66 67 68 67 57 52 53 54 55 57 59 60 61 62 62 62 64 66 67 68 70 70 71 70 70 73 72 71 73 70 71 70 70 70 69 70 71 71 72 73 74 75 75 76 76 76 76
21 22 21 21 20 19 17 16 15 10 8 8 10 9 9 23 46 48 49 48 49 49 52 52 46 46 54 58 59 60 62 63 65 64 65 65 65 65 65 65 65 65 66 66 66 54 54 55 58 60 60 61 61 62 62 64 66 67 69 70 70 70 70 71 72 73 72 72 71 71 69 70 70 69 70 71 72 72 73 74 74 74 75 75 75 75
21 20 19 19 19 17 16 15 15 13 10 10 14 16 10 40 46 47 47 46 48 48 51 50 49 48 49 54 59 60 60 62 63 63 64 65 65 65 65 64 64 65 65 65 64 64 54 55 58 59 60 60 61 62 61 63 66 67 69 70 70 71 71 70 71 73 72 71 71 70 70 71 70 70 70 71 72 73 73 74 74 74 74 75 75 75
20 19 18 18 17 16 15 15 15 14 12 13 14 14 15 27 42 47 47 45 43 48 47 48 49 47 47 52 58 59 58 59 61 63 63 64 65 65 65 64 64 66 67 65 65 66 56 55 57 59 60 60 61 62 62 63 67 67 69 70 70 70 71 70 71 73 72 72 71 71 71 71 71 71 71 73 73 72 74 73 73 73 73 74 74 75
24 19 18 18 17 15 15 14 14 14 11 12 13 16 20 24 22 42 45 43 46 46 45 46 45 44 44 51 57 58 58 58 60 62 63 63 64 64 65 65 65 66 67 67 66 64 65 61 56 58 60 60 61 62 63 64 67 67 69 70 69 70 71 70 71 73 73 72 73 71 71 71 71 72 72 72 72 71 73 72 73 73 73 73 74 74
23 31 34 19 18 18 15 14 14 14 13 18 23 17 22 26 27 29 38 37 44 42 45 46 45 44 42 49 56 56 56 57 59 61 62 63 64 65 65 65 65 66 66 66 67 66 65 67 60 58 59 60 61 62 63 64 67 67 68 70 69 70 70 71 71 73 73 73 72 72 71 71 71 72 71 72 71 71 72 72 72 72 73 73 74 74
21 22 22 24 30 21 17 16 15 14 14 15 24 29 25 27 35 34 34 39 36 33 37 45 44 44 40 45 52 57 58 58 59 60 61 62 63 64 65 65 66 67 66 67 67 68 66 68 65 59 58 60 60 61 62 65 67 67 67 70 69 70 71 70 71 72 72 73 73 73 72 72 71 71 71 71 70 71 71 71 72 72 72 73 74 74
19 19 21 22 32 23 22 20 21 21 18 18 21 26 24 30 32 34 30 26 29 30 35 43 44 44 44 48 50 54 55 58 59 60 61 62 63 63 64 65 65 66 67 66 66 66 66 66 66 61 58 60 61 61 62 65 66 67 67 69 69 69 71 69 71 72 72 73 73 73 72 72 72 71 71 71 71 71 71 71 72 73 72 73 73 74
17 20 21 21 21 29 21 18 21 15 20 19 20 27 23 21 28 25 30 33 30 32 36 41 44 44 51 52 52 52 54 59 60 61 62 62 63 63 64 65 65 66 66 66 66 65 66 65 67 68 63 61 60 61 61 65 67 67 66 68 68 69 71 70 70 72 72 72 73 73 73 71 73 71 71 71 71 71 71 72 72 73 72 73 73 73
18 17 21 22 19 26 23 20 21 21 19 20 23 22 26 31 28 25 28 23 25 30 32 43 42 45 46 49 55 54 54 58 60 61 61 62 63 63 64 64 65 65 66 66 66 65 65 65 67 67 67 64 63 60 61 65 67 67 67 68 68 68 71 70 70 72 72 71 72 72 73 72 72 70 71 71 72 72 72 72 72 72 73 73 73 73
20 21 23 23 23 25 24 25 24 23 22 23 21 26 25 24 38 25 30 30 30 26 28 44 45 50 50 54 57 58 56 58 59 59 61 62 62 63 63 64 65 65 66 66 66 66 66 66 68 67 67 64 66 66 62 66 67 67 67 68 68 68 70 70 70 72 72 72 72 72 72 72 72 73 71 73 73 72 72 73 72 72 72 74 74 73
25 25 23 23 23 23 24 27 27 24 21 27 22 21 24 29 28 34 37 34 32 31 40 47 49 50 53 52 55 56 57 58 58 58 60 61 62 63 63 64 64 65 66 66 66 66 67 67 68 68 67 65 66 68 68 65 67 67 68 69 69 68 70 70 70 71 72 72 72 72 71 72 72 73 71 72 72 72 72 73 73 72 72 73 74 74
22 20 22 25 19 22 23 25 26 24 30 29 23 21 26 29 27 27 24 30 27 23 36 47 47 48 48 46 57 55 56 57 58 58 59 60 61 62 62 63 64 65 66 67 67 67 67 68 68 68 68 68 67 68 71 71 67 68 68 69 69 69 70 71 70 70 71 72 72 72 71 72 72 72 71 72 72 72 72 72 73 72 73 72 73 73
23 21 22 25 23 23 23 23 23 26 26 23 22 27 21 25 23 31 28 22 21 32 41 46 47 48 48 48 53 54 56 57 58 59 59 61 62 63 64 65 65 67 67 67 67 68 67 67 68 69 69 69 69 71 71 72 71 69 68 69 69 69 70 71 70 70 71 71 71 71 71 71 72 72 71 72 72 72 71 71 71 72 72 72 72 73
27 21 22 27 24 23 22 21 22 20 23 26 24 23 29 26 31 26 25 31 27 33 42 44 44 43 49 52 54 56 56 57 58 59 60 61 62 62 62 63 64 65 67 67 68 68 68 69 70 70 71 71 71 71 71 71 71 72 71 71 72 71 71 72 70 71 71 71 71 71 71 71 72 72 71 71 71 71 71 71 71 71 71 72 72 72
26 29 23 24 24 22 21 21 20 22 20 21 22 22 22 28 28 25 31 23 29 35 42 43 41 44 49 56 56 56 58 59 59 58 58 59 59 61 62 64 64 64 65 66 69 69 68 70 69 70 70 70 71 71 72 72 71 72 72 71 71 71 72 73 73 72 72 71 71 71 71 70 71 71 71 70 71 70 70 70 71 70 70 71 71 71
29 29 23 24 22 22 21 25 24 23 22 22 22 22 21 20 22 20 21 27 24 40 38 41 38 45 52 57 56 58 59 59 60 58 58 58 59 60 61 62 62 62 63 65 67 68 69 69 70 70 70 71 71 71 71 72 72 72 72 72 71 71 71 72 72 73 73 73 71 70 70 70 70 71 71 70 70 70 69 69 70 70 70 69 70 70
29 35 31 25 24 22 23 25 26 25 24 19 18 17 20 27 27 24 19 23 41 43 44 43 43 45 56 58 57 59 59 60 60 60 57 57 58 59 60 60 61 61 61 62 64 67 69 69 69 70 70 70 71 71 71 71 71 71 72 73 72 71 71 72 72 72 72 72 72 71 70 70 70 70 70 69 69 69 69 68 68 69 69 69 69 69
39 29 28 26 31 30 28 29 24 24 20 24 17 20 17 17 20 22 24 28 43 43 42 42 43 49 55 58 58 59 60 60 60 59 59 56 56 58 59 59 60 60 60 61 62 65 66 68 68 69 69 70 70 70 70 70 71 71 71 71 71 71 71 72 73 73 72 72 72 72 71 70 70 69 69 69 69 69 69 68 67 69 68 67 68 68
27 33 32 28 29 29 29 30 27 26 23 21 20 16 20 16 21 27 38 40 39 40 43 42 41 48 55 57 58 58 60 60 61 60 58 57 56 56 57 58 59 60 60 60 61 63 66 67 66 67 68 68 69 70 70 70 70 70 70 71 71 71 72 72 73 73 72 71 71 72 71 70 70 70 69 69 69 68 68 68 67 67 68 67 66 67
28 34 34 28 27 25 24 24 27 33 24 25 20 16 16 19 29 27 28 39 35 43 44 44 46 51 55 56 57 58 59 59 61 59 56 56 55 55 56 57 58 58 59 60 60 62 63 65 65 66 67 68 69 69 69 70 71 71 71 71 71 71 72 72 73 73 72 72 71 70 70 72 72 71 70 70 70 69 68 67 67 66 67 67 66 66
31 37 37 38 38 31 33 33 33 38 29 15 15 15 15 16 34 39 40 38 37 43 44 44 48 49 51 54 55 56 57 56 58 59 55 55 55 55 56 57 57 58 58 58 59 60 61 63 65 66 66 67 69 70 70 70 70 71 71 71 72 72 71 72 72 72 72 72 71 70 71 72 71 71 71 71 70 69 69 68 66 65 65 66 66 65
38 29 31 35 38 37 32 34 31 32 23 17 15 13 14 17 25 32 34 37 44 42 38 46 49 49 50 52 53 54 57 55 54 55 54 54 54 55 56 57 58 57 58 58 58 59 60 61 63 65 66 67 67 69 70 70 71 71 71 71 72 72 73 72 72 72 71 71 71 71 72 72 72 71 72 71 71 71 69 68 68 68 68 67 66 65
27 24 25 32 25 22 20 27 26 20 21 20 17 14 15 16 24 27 37 42 45 39 41 47 48 48 50 51 53 55 55 53 53 53 53 53 54 54 54 54 54 54 56 59 57 57 58 59 61 62 64 66 67 67 67 68 68 69 71 71 71 71 71 72 72 72 72 72 71 71 72 72 72 72 71 72 71 71 71 70 69 68 68 69 67 66
31 28 33 26 28 22 24 25 20 15 18 18 17 17 17 18 35 30 39 44 47 46 47 48 48 49 51 52 52 53 55 53 54 55 53 51 51 52 52 53 53 53 54 54 55 57 56 57 59 59 61 63 65 66 67 67 68 69 70 69 71 71 73 72 73 72 72 72 71 71 72 72 72 72 71 71 71 70 70 71 70 68 67 67 66 67
20 24 33 23 26 23 29 26 22 15 18 19 18 20 18 22 42 47 48 48 48 47 48 48 49 49 52 54 54 53 53 51 51 51 51 51 52 51 51 51 52 53 54 54 54 55 56 57 57 58 59 60 62 64 66 67 67 68 69 69 69 69 70 70 71 72 72 72 72 72 72 72 72 72 72 72 72 71 71 70 70 70 69 67 66 66
28 28 31 33 26 27 26 26 22 22 23 19 20 21 22 18 22 38 48 48 47 47 48 48 47 48 51 55 50 51 52 50 50 51 50 51 50 50 49 49 49 49 50 52 54 54 54 56 57 57 58 58 60 62 63 65 66 66 67 67 69 69 70 69 69 68 69 71 72 73 72 73 73 72 72 72 72 71 71 71 71 69 69 68 66 66
27 30 28 28 30 30 24 22 24 22 23 19 21 19 28 29 31 37 46 50 48 48 46 45 47 49 51 52 47 48 48 48 48 49 49 49 49 49 48 48 48 49 50 51 52 53 53 54 56 58 58 58 59 60 62 63 64 64 66 66 67 68 69 69 68 68 69 69 70 70 71 73 73 72 72 72 72 72 72 72 71 71 70 69 69 67
38 31 26 32 24 26 24 24 38 26 18 22 24 22 32 36 38 40 44 46 47 47 46 46 49 51 51 47 46 46 47 47 48 49 49 49 48 48 48 48 48 48 49 50 51 52 52 52 53 57 58 58 58 58 61 64 64 64 64 65 67 67 67 67 67 67 68 68 69 70 70 72 72 72 73 73 73 73 73 72 71 72 72 72 72 70
36 34 30 31 25 24 26 29 27 22 29 32 29 30 31 41 45 45 47 47 47 47 48 49 49 50 52 52 50 47 47 46 47 47 48 49 49 48 48 48 47 48 47 46 47 48 51 51 50 53 56 57 57 56 56 59 63 63 63 63 63 65 66 67 66 67 67 68 68 69 69 70 71 72 72 73 73 72 72 72 72 72 72 72 72 71
33 31 33 33 29 29 26 26 15 17 31 33 34 27 38 33 39 45 44 46 49 48 49 49 50 51 52 52 53 52 46 45 44 46 46 48 49 48 46 45 45 45 44 45 45 47 48 51 50 51 55 58 55 54 54 56 59 63 63 63 63 63 64 64 65 66 67 67 68 68 69 69 70 70 71 72 72 72 73 73 72 72 72 73 72 72
35 38 36 31 34 22 25 22 22 35 30 30 37 29 32 32 33 42 42 43 50 52 51 50 50 50 50 50 49 47 47 44 42 42 42 44 45 47 46 45 44 44 44 45 44 45 47 47 47 47 52 56 56 55 55 55 56 58 61 62 62 62 62 63 64 64 64 67 68 69 69 69 69 69 70 70 70 71 71 72 72 73 73 73 72 72
37 29 34 29 32 33 22 22 25 20 18 29 36 37 29 26 35 42 42 40 45 49 51 49 49 50 50 51 51 51 49 46 46 41 40 40 41 41 43 44 41 41 42 44 45 44 45 46 45 48 47 48 53 55 56 56 56 56 57 59 59 58 58 60 62 63 64 64 66 67 67 68 68 69 69 70 69 69 70 71 72 72 73 73 73 72
38 38 37 31 32 34 31 19 18 16 24 34 36 34 28 29 32 42 39 36 41 47 52 53 51 50 49 49 50 48 49 47 45 43 41 40 40 40 41 42 42 43 44 44 44 44 44 45 46 46 48 48 50 53 55 56 57 57 57 58 57 57 56 57 59 60 62 63 64 66 66 67 66 67 68 69 68 68 69 69 70 72 72 71 72 72
34 34 27 26 30 36 31 25 20 33 30 33 39 35 29 31 33 34 34 33 39 42 46 49 49 50 51 49 50 48 43 40 39 40 41 41 42 41 42 44 45 47 48 48 47 46 47 48 45 45 46 48 49 50 52 53 55 58 58 57 56 56 56 56 57 57 60 62 62 65 67 65 66 65 65 66 69 66 66 69 70 70 71 71 72 72
29 30 26 23 30 31 32 28 30 35 39 40 37 36 37 43 28 20 26 35 43 42 41 46 46 47 47 47 45 42 43 41 40 41 42 42 42 43 44 46 47 49 50 50 50 52 46 46 46 46 48 49 50 50 51 53 55 56 57 55 53 55 56 56 56 57 58 60 62 61 60 62 62 63 64 64 66 67 68 67 68 69 70 70 71 71
31 32 37 27 22 21 27 23 23 32 38 39 39 44 43 34 19 16 33 44 46 40 45 43 44 45 45 44 42 41 41 41 44 42 43 43 43 44 45 46 47 47 47 51 53 52 46 46 47 47 48 49 50 51 52 53 56 57 56 52 52 54 56 56 57 57 58 60 61 59 58 58 60 64 65 66 66 65 65 65 67 69 69 69 69 69
31 25 25 23 27 25 24 26 26 25 35 44 40 35 44 30 29 38 42 43 44 40 38 40 42 42 42 40 41 41 40 41 42 43 43 44 44 44 45 46 46 46 46 46 47 50 48 46 47 47 48 49 50 51 52 52 55 57 56 52 54 55 57 57 57 57 58 59 58 58 59 59 60 61 61 62 64 64 64 65 65 67 69 67 68 67
35 25 26 26 28 23 23 20 23 29 37 45 39 33 39 42 43 47 40 39 43 42 40 40 41 41 40 40 39 40 40 41 43 44 44 44 45 45 45 46 46 46 46 47 48 49 51 47 47 48 48 49 51 51 52 52 54 55 55 52 55 56 58 56 56 58 58 59 58 58 58 59 60 59 58 59 60 63 64 65 65 67 68 67 66 65
33 28 33 28 34 31 30 32 35 41 44 44 44 44 45 48 51 48 41 41 39 40 43 41 41 41 41 40 40 40 41 42 43 43 44 44 44 45 45 45 45 45 45 46 48 50 48 47 47 47 49 49 50 51 52 52 52 54 53 53 56 55 56 55 57 58 58 57 57 57 57 57 57 57 58 58 60 61 64 64 66 67 67 68 65 64
34 42 39 33 30 37 40 38 41 43 43 43 45 45 42 43 44 44 42 40 42 41 42 42 43 42 41 41 40 40 41 42 42 43 43 44 45 46 46 44 44 45 45 46 47 48 47 47 47 49 50 49 51 50 53 51 51 52 52 54 55 54 55 55 57 58 57 56 56 56 56 57 57 57 59 60 60 60 61 61 65 66 66 66 66 64
37 38 35 28 36 25 23 39 40 41 42 43 43 45 45 42 39 41 42 42 42 41 40 42 43 45 44 42 41 41 42 42 42 43 44 45 45 44 44 44 44 45 45 46 49 50 47 49 48 50 51 50 49 50 51 51 52 53 53 54 53 54 55 55 57 58 55 53 53 54 55 56 57 57 57 57 58 59 60 60 63 62 64 66 67 67
34 40 35 39 34 27 31 38 40 43 42 43 41 39 40 41 41 41 42 42 43 44 42 40 43 43 43 42 41 41 41 42 43 44 44 44 44 44 44 45 46 46 47 48 49 49 48 48 47 48 50 50 50 51 52 52 51 52 52 52 52 53 54 55 57 55 52 52 52 53 54 55 57 56 55 56 56 56 57 58 60 58 58 58 58 61
37 41 32 39 36 39 40 41 42 38 40 42 44 44 41 41 41 42 42 41 40 40 40 42 41 43 42 41 41 41 42 43 42 41 40 42 44 45 45 46 46 46 46 46 47 48 46 49 49 49 50 51 51 51 51 50 50 51 50 51 51 52 52 54 55 54 52 52 52 52 56 56 54 53 53 53 54 55 56 58 58 58 59 59 60 61
38 35 40 37 34 34 37 39 43 30 33 40 44 46 46 46 43 41 41 41 40 39 39 38 40 43 43 43 42 42 41 42 43 43 43 44 44 45 45 45 44 44 45 46 48 47 49 51 49 50 51 49 50 50 51 50 50 51 51 51 51 51 51 53 53 52 52 53 54 54 55 55 51 51 53 52 52 53 54 58 56 56 58 58 61 57
37 40 39 36 37 36 41 44 44 42 42 43 45 46 47 47 46 44 42 41 40 40 40 38 38 39 39 41 42 41 40 42 41 41 42 43 44 44 44 44 44 44 45 46 45 45 47 50 52 51 51 50 52 51 51 51 51 51 51 51 51 51 52 51 53 53 53 55 54 55 55 54 52 53 53 53 53 53 55 55 56 50 51 52 55 52